Meteo pe oră la Dzierzgow

Astăzi, 2 Martie, Marţi

Timp Temperatura Precipitaţii Vânt Presiune Umiditate
00:00 -1°C° 0 mm 4 m/s 766 mmHg 93%
01:00 0°C° 0 mm 3 m/s 766 mmHg 94%
02:00 -1°C° 0 mm 4 m/s 766 mmHg 94%
03:00 -1°C° 0 mm 4 m/s 766 mmHg 94%
04:00 -1°C° 0 mm 5 m/s 765 mmHg 94%
05:00 -1°C° 0 mm 5 m/s 765 mmHg 94%
06:00 -1°C° 0 mm 5 m/s 765 mmHg 94%
07:00 -1°C° 0 mm 5 m/s 765 mmHg 95%
08:00 +1°C° 0 mm 5 m/s 765 mmHg 89%
09:00 +2°C° 0 mm 5 m/s 765 mmHg 83%
10:00 +3°C° 0 mm 5 m/s 765 mmHg 77%
11:00 +6°C° 0 mm 5 m/s 765 mmHg 72%
12:00 +7°C° 0 mm 5 m/s 765 mmHg 68%
13:00 +8°C° 0 mm 5 m/s 765 mmHg 63%
14:00 +8°C° 0 mm 5 m/s 764 mmHg 64%
15:00 +8°C° 0 mm 4 m/s 764 mmHg 65%
16:00 +8°C° 0 mm 4 m/s 764 mmHg 65%
17:00 +6°C° 0 mm 4 m/s 764 mmHg 71%
18:00 +5°C° 0 mm 3 m/s 764 mmHg 77%
19:00 +4°C° 0 mm 3 m/s 764 mmHg 83%
20:00 +4°C° 0 mm 2 m/s 765 mmHg 85%
21:00 +4°C° 0 mm 2 m/s 765 mmHg 86%
22:00 +3°C° 0 mm 2 m/s 765 mmHg 87%
23:00 +4°C° 0 mm 1 m/s 765 mmHg 88%

Mâine, 3 Martie, Miercuri

Timp Temperatura Precipitaţii Vânt Presiune Umiditate
00:00 +3°C° 0 mm 1 m/s 765 mmHg 88%
01:00 +2°C° 0 mm 0 m/s 765 mmHg 89%
02:00 +3°C° 0 mm 1 m/s 765 mmHg 89%
03:00 +3°C° 0 mm 1 m/s 764 mmHg 89%
04:00 +2°C° 0 mm 1 m/s 764 mmHg 89%
05:00 +2°C° 0 mm 1 m/s 764 mmHg 89%
06:00 +3°C° 0 mm 1 m/s 764 mmHg 90%
07:00 +3°C° 0 mm 1 m/s 764 mmHg 90%
08:00 +4°C° 0 mm 1 m/s 764 mmHg 83%
09:00 +6°C° 0 mm 1 m/s 763 mmHg 76%
10:00 +7°C° 0 mm 1 m/s 763 mmHg 69%
11:00 +7°C° 0 mm 2 m/s 762 mmHg 63%
12:00 +9°C° 0 mm 2 m/s 762 mmHg 58%
13:00 +10°C° 0 mm 2 m/s 761 mmHg 52%
14:00 +10°C° 0 mm 2 m/s 760 mmHg 54%
15:00 +10°C° 0 mm 2 m/s 760 mmHg 55%
16:00 +10°C° 0 mm 2 m/s 759 mmHg 56%
17:00 +8°C° 0 mm 2 m/s 758 mmHg 61%
18:00 +7°C° 0 mm 2 m/s 758 mmHg 66%
19:00 +5°C° 0 mm 3 m/s 758 mmHg 70%
20:00 +5°C° 0 mm 3 m/s 757 mmHg 73%
21:00 +4°C° 0 mm 3 m/s 757 mmHg 76%
22:00 +4°C° 0 mm 3 m/s 756 mmHg 79%
23:00 +4°C° 0 mm 4 m/s 755 mmHg 80%

Poimâine, 4 Martie, Joi

Timp Temperatura Precipitaţii Vânt Presiune Umiditate
00:00 +4°C° 0 mm 4 m/s 755 mmHg 81%
01:00 +3°C° 0 mm 4 m/s 754 mmHg 82%
02:00 +2°C° 0 mm 5 m/s 754 mmHg 83%
03:00 +2°C° 0 mm 5 m/s 753 mmHg 85%
04:00 +2°C° 0 mm 5 m/s 752 mmHg 87%
05:00 +2°C° 0 mm 5 m/s 752 mmHg 88%
06:00 +2°C° 0 mm 5 m/s 752 mmHg 90%
07:00 +2°C° 0 mm 5 m/s 752 mmHg 91%
08:00 +3°C° 0 mm 6 m/s 751 mmHg 87%
09:00 +5°C° 0 mm 6 m/s 751 mmHg 82%
10:00 +6°C° 0 mm 7 m/s 751 mmHg 78%
11:00 +6°C° 0 mm 7 m/s 750 mmHg 75%
12:00 +6°C° 0 mm 7 m/s 750 mmHg 71%
13:00 +6°C° 0 mm 7 m/s 750 mmHg 68%
14:00 +5°C° 0 mm 6 m/s 750 mmHg 69%
15:00 +5°C° 0 mm 6 m/s 750 mmHg 71%
16:00 +4°C° 0 mm 6 m/s 749 mmHg 72%
17:00 +3°C° 0 mm 5 m/s 749 mmHg 74%
18:00 +2°C° 0 mm 5 m/s 750 mmHg 75%
19:00 +1°C° 0 mm 4 m/s 750 mmHg 77%
20:00 +1°C° 0 mm 4 m/s 750 mmHg 81%
21:00 0°C° 0 mm 4 m/s 750 mmHg 85%
22:00 -1°C° 0 mm 4 m/s 751 mmHg 89%
23:00 -1°C° 0 mm 4 m/s 751 mmHg 84%

5 Martie, Vineri

Timp Temperatura Precipitaţii Vânt Presiune Umiditate
00:00 -1°C° 0 mm 3 m/s 751 mmHg 79%
01:00 -1°C° 0 mm 3 m/s 751 mmHg 74%
02:00 -1°C° 0 mm 3 m/s 751 mmHg 75%
03:00 -2°C° 0 mm 3 m/s 752 mmHg 75%
04:00 -3°C° 0 mm 4 m/s 752 mmHg 76%
05:00 -3°C° 0 mm 4 m/s 752 mmHg 76%
06:00 -3°C° 0 mm 4 m/s 753 mmHg 75%
07:00 -3°C° 0 mm 4 m/s 753 mmHg 75%
08:00 -2°C° 0 mm 4 m/s 753 mmHg 67%
09:00 -1°C° 0 mm 4 m/s 754 mmHg 60%
10:00 -1°C° 0 mm 4 m/s 754 mmHg 52%
11:00 0°C° 0 mm 4 m/s 754 mmHg 47%
12:00 +2°C° 0 mm 3 m/s 754 mmHg 41%
13:00 +2°C° 0 mm 3 m/s 755 mmHg 36%
14:00 +2°C° 0 mm 3 m/s 755 mmHg 37%
15:00 +2°C° 0 mm 3 m/s 755 mmHg 37%
16:00 +3°C° 0 mm 2 m/s 755 mmHg 37%
17:00 +2°C° 0 mm 2 m/s 756 mmHg 44%
18:00 +1°C° 0 mm 2 m/s 756 mmHg 50%
19:00 -1°C° 0 mm 2 m/s 757 mmHg 56%
20:00 -1°C° 0 mm 2 m/s 757 mmHg 60%
21:00 -1°C° 0 mm 3 m/s 758 mmHg 63%
22:00 -1°C° 0 mm 3 m/s 758 mmHg 67%
23:00 -2°C° 0 mm 3 m/s 759 mmHg 68%

6 Martie, Sâmbătă

Timp Temperatura Precipitaţii Vânt Presiune Umiditate
00:00 -3°C° 0 mm 4 m/s 759 mmHg 70%
01:00 -3°C° 0 mm 4 m/s 759 mmHg 72%
02:00 -3°C° 0 mm 4 m/s 760 mmHg 71%
03:00 -5°C° 0 mm 5 m/s 760 mmHg 71%
04:00 -5°C° 0 mm 5 m/s 760 mmHg 70%
05:00 -5°C° 0 mm 5 m/s 760 mmHg 67%
06:00 -5°C° 0 mm 5 m/s 761 mmHg 64%
07:00 -5°C° 0 mm 5 m/s 761 mmHg 62%
08:00 -4°C° 0 mm 5 m/s 762 mmHg 56%
09:00 -2°C° 0 mm 5 m/s 762 mmHg 50%
10:00 -1°C° 0 mm 5 m/s 762 mmHg 44%
11:00 -1°C° 0 mm 5 m/s 762 mmHg 42%
12:00 0°C° 0 mm 5 m/s 762 mmHg 40%
13:00 0°C° 0 mm 5 m/s 762 mmHg 37%
14:00 0°C° 0 mm 4 m/s 762 mmHg 40%
15:00 0°C° 0 mm 4 m/s 761 mmHg 42%
16:00 +1°C° 0 mm 4 m/s 761 mmHg 44%
17:00 0°C° 0 mm 4 m/s 761 mmHg 48%
18:00 -1°C° 0 mm 4 m/s 761 mmHg 51%
19:00 -2°C° 0 mm 4 m/s 761 mmHg 54%
20:00 -2°C° 0 mm 5 m/s 760 mmHg 53%
21:00 -2°C° 0 mm 5 m/s 760 mmHg 52%
22:00 -3°C° 0 mm 6 m/s 760 mmHg 51%
23:00 -3°C° 0 mm 6 m/s 759 mmHg 55%

7 Martie, Duminică

Timp Temperatura Precipitaţii Vânt Presiune Umiditate
00:00 -3°C° 0 mm 7 m/s 759 mmHg 59%
01:00 -3°C° 0 mm 7 m/s 758 mmHg 63%
02:00 -3°C° 0 mm 7 m/s 758 mmHg 67%
03:00 -3°C° 0 mm 7 m/s 757 mmHg 70%
04:00 -4°C° 0 mm 8 m/s 757 mmHg 74%
05:00 -4°C° 0 mm 8 m/s 756 mmHg 76%
06:00 -4°C° 0 mm 8 m/s 756 mmHg 79%
07:00 -4°C° 0 mm 9 m/s 756 mmHg 81%
08:00 -3°C° 0 mm 9 m/s 755 mmHg 78%
09:00 -3°C° 0 mm 9 m/s 755 mmHg 74%
10:00 -1°C° 0 mm 9 m/s 755 mmHg 71%
11:00 -1°C° 0 mm 9 m/s 754 mmHg 70%
12:00 -1°C° 0 mm 9 m/s 754 mmHg 70%
13:00 0°C° 0 mm 9 m/s 753 mmHg 69%
14:00 -1°C° 0 mm 9 m/s 753 mmHg 71%
15:00 -1°C° 0 mm 8 m/s 752 mmHg 73%
16:00 -1°C° 0 mm 8 m/s 751 mmHg 75%
17:00 -2°C° 0 mm 8 m/s 751 mmHg 76%
18:00 -2°C° 0 mm 8 m/s 750 mmHg 78%
19:00 -3°C° 0 mm 7 m/s 750 mmHg 79%
20:00 -4°C° 0 mm 8 m/s 750 mmHg 81%
21:00 -2°C° 0 mm 8 m/s 750 mmHg 83%
22:00 -2°C° 0 mm 8 m/s 750 mmHg 86%
23:00 -3°C° 0.4 mm 7 m/s 750 mmHg 84%
Arată mai mult

Formular de consimțământ

Meteoprog și furnizorii noștri de servicii pot stoca și accesa date personale, precum cookies, identificatori de dispozitiv sau alte tehnologii similare pe dispozitivul dumneavoastră și procesa astfel de date pentru a personaliza conținutul și reclamele, dar și pentru a oferi caracteristici de social media și pentru a analiza traficul.

  • Stocarea și/sau accesarea informațiilor pe dispozitivul dumneavoastră

    Cookies, identificatori de dispozitiv sau alte informații pot fi stocate sau accesate pe dispozitiv în scopurile indicate mai sus.

  • Reclame și conținut personalizat, evaluarea reclamelor și a conținutului, informații despre audiențe și dezvoltarea produselor

    Reclamele și conținutul pot fi personalizate pe baza unui profil. Pot fi adăugate date suplimentare pentru a personaliza mai bine reclamele și conținutul. Performanța reclamelor și conținutului poate fi măsurată. Pot fi obținute informații despre utilizatorii care au văzut reclamele și conținutul. Aceste date pot fi utilizate pentru a dezvolta sau îmbunătăți experiența utilizatorilor, sistemele și software-ul.

Dând clic pe ‘Sunt de acord’, permiteți utilizarea cookie-urilor menționate, a identificatorilor de dispozitiv, balizelor web sau altor tehnologii similare. Setările pot fi modificate din browser-ul dispozitivului dumneavoastră.

În anumite scopuri, interesele legitime pot prima asupra consimțământului. Puteți citi mai multe informații în acest sens în Politica privind Confidențialitatea Datelor și Cookie.